Theta_e
321 322 326 327 329 330 335 336 332 336 332 328 332 326 325 329 328 324 320 319 319 320 321 323 326 326 325 326 327 328 326 330 336 335 331 327 323 326 328 328 329 329 329 328 327 326 324 323 320 320 321 325 327 329 331 332 334 331 331 334 334 335 335 335 336 336 337 337 336 336 336 336 336 334 334 334 335 333 331 331 331 332 333 336 337 337 338 338 338 338 338 339 339 338 337 337 336
323 327 329 328 329 331 343 340 331 334 328 325 329 326 325 327 324 323 322 320 320 319 322 323 326 326 325 325 323 324 325 323 328 329 324 321 322 325 327 328 328 328 329 328 327 324 321 321 320 321 323 326 329 330 330 331 333 330 329 332 332 333 334 334 334 335 335 335 335 334 334 334 333 332 333 334 333 332 331 331 331 331 331 333 334 335 336 337 338 337 338 338 338 338 337 337 336
326 330 330 330 332 333 343 339 334 330 322 325 331 332 325 322 326 325 322 321 322 322 324 324 325 324 323 326 321 322 325 321 321 321 319 320 322 324 327 326 326 328 328 327 327 324 319 319 320 322 325 327 329 329 329 329 331 330 329 331 331 332 332 332 332 333 333 332 332 331 331 331 331 331 331 331 331 330 329 329 329 330 330 332 333 334 334 334 336 336 336 336 336 336 335 335 335
327 331 329 331 339 337 340 337 338 329 322 327 327 333 327 326 330 324 322 323 323 323 324 323 323 320 320 324 320 323 325 321 320 319 319 319 321 324 326 325 326 327 327 326 327 324 319 319 320 321 323 325 327 327 328 329 329 329 328 330 329 329 330 330 330 330 330 330 330 329 329 329 329 329 329 328 328 327 327 327 327 328 328 329 330 331 331 331 332 332 333 333 333 332 332 331 331
326 330 327 330 342 339 335 335 336 328 329 328 319 331 330 328 330 322 322 322 322 322 322 321 322 320 318 322 320 326 326 323 320 318 319 319 321 324 324 325 325 325 325 326 326 323 318 318 320 319 319 320 322 323 325 325 325 325 325 327 328 328 328 328 328 328 328 328 327 327 327 326 326 326 325 324 324 323 323 323 323 323 324 325 326 327 327 327 328 328 328 329 328 328 328 327 327
325 328 326 328 335 334 333 334 335 330 332 328 321 330 326 325 326 322 321 319 322 321 321 319 321 321 319 319 319 325 324 324 321 317 319 319 320 322 323 324 324 324 324 324 324 321 317 318 318 318 317 316 316 315 317 317 318 319 321 323 324 325 325 325 326 325 325 324 323 323 322 321 321 320 319 318 318 317 317 317 316 315 316 317 319 321 322 323 323 323 322 322 322 322 322 322 322
326 328 329 332 331 329 333 332 333 331 330 327 326 328 323 324 322 321 322 319 320 319 320 320 321 321 320 319 318 320 318 321 320 318 319 318 320 321 321 321 322 322 322 322 321 319 317 317 317 315 314 312 311 310 311 311 312 314 316 317 319 320 321 321 321 320 319 318 317 316 314 313 312 312 311 310 310 309 309 308 308 308 307 307 309 311 313 315 316 314 313 312 312 311 312 312 312
325 329 334 339 336 329 330 330 328 327 328 327 325 325 323 323 322 323 323 319 319 318 319 320 320 321 321 319 321 319 315 319 319 318 319 318 321 320 320 320 321 321 321 321 319 317 316 317 316 314 311 309 308 308 308 307 308 308 309 310 311 312 312 312 312 311 310 308 308 306 305 304 304 303 303 303 303 302 302 301 301 302 302 302 301 302 303 306 307 305 303 302 302 302 302 302 302
323 329 335 338 334 328 329 329 326 325 326 328 323 322 323 321 322 325 323 320 320 319 319 320 319 320 321 319 321 317 315 318 317 318 317 318 320 318 319 319 320 320 321 321 319 316 315 317 315 312 309 307 306 306 305 304 304 303 304 304 304 304 304 304 303 303 302 302 301 300 300 300 299 299 299 299 298 298 298 298 298 299 300 300 300 299 299 300 302 300 298 298 298 298 298 298 298
324 328 331 333 330 328 330 328 328 331 327 327 326 322 322 321 322 325 323 321 321 321 319 320 318 318 319 320 324 318 315 317 316 317 316 317 318 317 318 318 319 319 319 319 319 316 314 316 314 310 306 305 304 303 302 301 301 301 301 301 300 300 300 300 299 299 299 299 299 298 299 298 298 298 298 297 297 297 297 298 298 299 300 301 301 301 300 300 301 300 297 296 296 296 297 297 297
328 329 330 329 327 326 330 329 330 336 329 324 324 321 322 322 321 322 321 321 321 321 319 318 318 319 317 319 325 318 314 316 315 316 315 316 316 315 316 316 317 317 318 317 316 315 314 314 312 307 304 303 302 301 300 301 301 300 300 300 299 299 299 299 299 299 298 298 298 298 298 298 298 297 297 297 297 297 297 298 298 298 298 298 299 299 299 298 299 298 296 296 296 296 296 296 296
332 332 331 327 328 327 329 329 328 333 332 325 321 319 321 322 320 320 320 320 320 321 320 318 319 320 318 319 322 315 313 314 314 315 314 315 314 313 314 315 316 315 316 315 314 314 313 313 309 305 303 301 300 300 300 301 301 300 300 299 299 299 299 299 299 299 298 298 298 298 298 298 298 298 298 298 298 298 297 297 297 297 297 297 297 297 297 297 297 296 296 296 296 296 296 296 296
330 332 328 328 335 331 326 327 329 331 332 327 322 319 320 321 321 322 322 321 320 321 320 318 319 318 319 321 317 312 312 313 313 313 313 314 311 310 312 313 314 314 314 313 313 312 312 312 307 304 302 300 300 300 300 300 300 300 299 299 299 299 299 299 299 299 298 298 298 298 298 298 298 298 298 298 298 298 297 297 297 297 297 297 297 297 297 297 297 297 297 297 297 297 297 297 297
328 331 324 329 335 329 325 327 328 327 329 327 319 319 320 320 322 323 322 320 320 321 319 317 318 318 319 319 318 316 313 312 313 312 313 312 309 308 310 311 311 312 312 311 311 311 311 309 305 302 301 299 299 299 299 299 299 299 299 298 298 298 298 298 298 298 298 298 298 298 298 298 298 298 298 297 297 297 297 297 297 297 297 297 297 297 297 297 297 297 297 297 297 297 297 297 297
327 333 325 327 330 326 326 326 324 322 329 329 318 319 320 318 320 321 321 319 320 319 316 316 316 319 319 318 324 322 313 311 312 311 312 310 308 308 308 308 309 309 309 309 309 309 308 307 303 301 300 299 299 299 299 299 299 299 298 298 298 298 298 298 298 298 298 298 298 298 298 297 297 297 297 297 297 297 296 297 297 296 296 296 296 296 296 296 296 295 295 296 296 296 296 296 296
327 333 325 325 328 325 326 329 327 324 331 328 317 319 319 318 319 318 318 317 320 318 317 318 316 317 319 318 321 319 312 312 311 311 311 308 308 307 307 307 307 307 307 307 307 307 305 304 302 300 299 298 298 299 299 298 298 298 298 297 297 297 297 297 298 297 297 297 297 297 297 296 296 296 296 296 296 296 296 296 296 295 295 295 295 295 295 296 297 297 296 295 295 295 295 295 295
330 332 325 326 328 325 330 331 326 326 331 325 317 318 318 319 317 316 314 314 318 318 319 319 316 315 317 317 316 314 312 311 310 310 309 307 307 306 306 306 306 306 306 305 305 304 303 302 300 299 298 298 298 298 298 298 298 297 297 297 297 297 297 297 297 296 297 297 297 297 297 296 295 295 295 295 295 296 295 295 295 294 294 294 294 294 294 296 297 298 296 294 294 294 294 295 295
332 332 325 324 327 327 332 329 322 325 326 321 318 319 318 319 319 316 314 316 316 316 318 318 317 315 313 314 313 312 311 310 310 308 306 306 305 304 305 305 305 305 304 304 304 303 302 301 300 299 298 298 298 298 298 298 297 297 296 296 296 296 296 296 296 296 297 297 297 297 297 295 295 295 295 295 295 295 295 294 294 294 294 294 294 294 294 294 294 295 294 293 293 294 294 294 294
331 333 326 327 332 331 328 323 321 321 320 321 321 319 318 319 320 316 315 319 317 316 317 316 317 316 312 311 310 310 309 309 309 307 305 305 304 304 304 304 304 304 303 303 302 302 302 301 301 299 298 298 298 299 299 298 297 297 296 296 295 295 295 296 296 296 297 297 296 296 296 295 295 294 295 295 294 294 294 294 294 294 294 294 294 294 294 294 294 294 294 293 294 293 293 294 294
330 329 326 332 333 327 325 321 319 319 318 320 320 318 317 318 318 315 316 319 318 317 316 316 317 317 315 311 308 308 308 307 307 306 305 304 304 304 304 303 303 304 304 303 302 302 301 301 301 300 299 298 299 299 299 297 296 296 296 295 295 295 295 295 295 296 297 297 296 296 296 296 295 295 295 294 294 294 294 294 294 294 294 294 294 294 294 294 294 294 294 294 294 294 294 293 293
327 324 325 332 327 322 324 321 319 320 319 319 320 318 317 318 317 315 317 318 317 316 315 316 317 315 315 312 308 306 306 306 306 305 305 304 304 304 304 304 304 304 304 303 302 302 302 301 301 300 299 299 299 299 299 297 296 296 295 295 295 295 295 295 295 296 296 296 296 296 296 296 295 295 295 295 294 294 294 294 294 294 294 294 294 294 294 294 294 294 293 294 294 293 293 293 293
324 322 323 327 323 321 322 320 321 321 318 319 320 318 317 318 317 316 318 317 316 316 315 315 315 316 314 312 308 306 306 306 305 304 304 304 304 304 304 305 305 304 303 302 302 302 301 301 301 300 299 299 299 299 299 297 296 296 295 295 294 295 295 295 295 295 296 296 296 296 296 297 296 295 295 295 294 294 294 294 294 294 295 295 295 294 294 294 294 293 293 293 293 293 293 293 293
324 323 322 322 321 321 320 319 321 320 316 318 318 317 317 317 317 317 317 316 316 317 318 317 315 313 311 310 309 308 308 307 305 304 304 305 305 305 305 305 305 304 303 303 303 302 301 301 301 300 300 300 299 299 298 296 296 296 295 295 295 295 295 295 295 295 296 296 296 296 297 297 296 296 295 295 294 294 294 294 294 295 295 295 295 295 294 294 293 293 293 293 293 293 293 293 293
323 323 321 320 320 320 319 318 320 320 317 318 318 315 316 316 317 317 316 315 315 316 318 319 315 311 311 312 310 310 309 307 306 305 305 306 306 306 306 305 305 305 303 303 303 302 301 301 301 300 300 300 299 298 296 296 296 296 296 296 297 296 295 296 296 296 296 296 296 296 297 297 296 296 295 295 295 294 294 294 294 295 295 295 294 294 294 293 293 292 292 292 292 292 292 292 292
322 322 320 319 319 319 319 318 319 320 318 318 317 316 316 316 316 315 315 315 314 315 315 316 315 314 315 315 312 310 310 307 306 305 306 306 306 307 306 305 305 304 304 303 303 302 302 302 301 301 300 300 300 298 296 296 297 297 298 297 297 297 296 296 297 296 296 296 296 296 296 296 296 295 295 295 295 294 294 294 294 294 294 294 294 294 293 293 292 292 292 292 292 292 291 291 291
321 319 319 317 317 317 317 317 316 318 318 317 316 316 316 315 314 314 314 314 314 314 315 316 315 315 316 316 313 311 311 309 306 306 306 306 306 306 306 306 305 304 304 304 303 303 303 302 301 301 300 300 300 298 296 297 298 298 298 297 297 297 296 296 297 296 295 295 295 295 295 295 295 295 294 294 294 294 294 293 294 294 294 293 293 293 293 292 292 292 292 291 291 291 291 290 290
318 317 318 317 316 316 315 316 316 316 316 316 316 316 315 314 314 314 315 315 314 314 315 315 315 315 315 315 313 311 311 310 307 307 306 306 305 305 306 306 305 305 304 304 304 303 303 302 302 301 301 300 300 299 297 298 298 298 298 298 297 297 296 296 297 296 295 294 294 294 294 295 294 294 294 294 294 294 294 294 294 294 293 293 293 293 293 293 292 292 291 291 291 290 290 289 289
316 316 317 317 315 316 315 315 315 314 315 316 316 315 315 314 314 314 314 315 316 316 316 315 314 315 314 314 313 311 311 309 307 307 306 306 305 305 306 306 306 305 304 304 304 303 303 302 302 301 301 300 300 299 299 299 299 298 299 298 297 297 297 297 297 296 295 294 294 294 294 294 294 293 293 294 294 294 294 294 294 293 293 293 292 293 293 292 292 291 291 291 290 290 289 289 289
315 315 315 316 315 315 315 315 315 314 315 316 314 315 316 314 314 315 314 314 315 316 316 316 315 314 314 314 312 312 310 308 307 307 307 307 306 306 306 306 307 305 305 304 304 303 303 302 302 301 301 301 300 299 299 299 299 298 299 299 298 297 297 297 296 295 296 295 293 293 293 293 293 293 293 294 294 294 295 295 295 294 293 293 292 292 292 292 292 291 291 291 290 290 290 289 289
315 315 315 316 315 316 315 314 316 314 314 316 314 315 317 315 314 314 313 313 314 315 314 314 315 314 314 314 313 313 311 309 308 307 308 308 308 307 307 306 306 306 305 304 304 303 303 302 302 301 301 301 300 299 299 299 299 298 298 298 298 297 297 297 296 295 296 295 293 293 293 293 293 293 293 294 294 294 295 295 295 293 293 292 292 292 292 291 291 291 291 291 290 290 289 289 288
315 315 316 317 317 319 317 315 317 315 314 315 315 315 316 316 315 314 313 313 313 313 314 313 313 313 313 314 314 313 312 310 308 308 309 308 308 308 307 307 306 306 305 304 304 304 303 302 301 301 301 300 300 299 299 299 298 298 298 298 297 296 296 296 295 295 295 295 294 292 293 293 293 293 293 294 294 294 295 295 294 293 292 291 291 291 291 291 291 291 291 290 290 290 289 288 288
317 316 318 320 318 318 317 316 316 316 314 312 315 316 315 315 315 314 313 313 313 313 313 313 312 313 312 313 313 313 313 310 308 308 309 309 309 309 308 308 307 307 306 305 304 303 303 302 301 301 300 300 300 299 299 298 298 298 298 297 297 296 295 295 295 295 295 294 293 292 292 293 293 293 293 293 293 294 294 294 293 292 291 291 290 290 290 290 290 290 290 290 290 289 289 288 288
320 316 317 320 320 316 317 318 316 317 316 312 314 317 316 316 316 316 314 313 314 313 314 314 313 313 312 312 312 313 313 312 310 308 308 308 309 309 309 308 307 307 306 305 304 303 302 301 301 301 300 300 300 299 299 298 298 298 298 297 297 296 295 295 294 294 295 294 293 292 292 292 292 292 292 292 293 293 293 293 292 291 290 290 290 290 290 290 291 290 290 289 289 288 288 288 288
319 318 317 318 318 316 317 321 317 315 316 314 313 314 315 316 316 317 316 314 314 315 315 314 314 313 312 312 312 312 312 312 312 309 308 309 309 309 309 309 308 307 307 305 304 303 302 301 301 300 300 300 299 299 298 298 298 298 298 297 297 296 295 295 294 294 294 294 293 292 292 292 291 291 292 292 292 292 292 292 291 291 290 290 290 290 290 290 290 290 290 289 288 288 288 288 288
318 321 321 319 318 316 316 318 317 315 315 315 314 313 313 314 314 314 314 313 313 315 316 315 315 314 313 312 312 312 312 311 312 310 309 309 309 309 309 308 308 307 307 306 304 303 302 301 300 300 299 299 299 299 298 298 298 298 297 297 296 296 295 295 295 295 294 294 293 292 292 291 291 291 291 291 291 291 291 291 291 291 290 290 290 290 290 290 290 290 289 289 288 288 288 288 288
318 322 321 319 318 315 315 316 317 317 315 315 315 313 313 313 312 312 312 312 312 313 314 314 314 314 313 313 312 312 312 312 311 309 309 310 309 309 309 308 308 307 307 305 304 303 301 300 299 299 299 299 299 298 298 298 297 297 297 296 296 295 295 295 295 295 294 294 293 293 292 291 291 291 291 291 291 291 291 291 291 291 290 290 290 290 290 290 290 290 289 290 289 288 288 288 288
316 318 317 317 316 315 314 315 317 317 317 317 317 315 314 314 313 313 312 312 313 313 312 312 312 312 313 313 313 313 312 313 311 309 309 310 309 308 308 308 307 306 306 305 303 302 301 300 299 298 299 298 298 298 298 297 297 297 296 296 296 295 295 295 295 295 294 294 293 293 292 291 291 291 291 291 290 291 291 291 291 291 290 290 289 289 289 290 290 289 289 289 289 289 288 288 288
315 316 316 316 316 316 315 316 317 316 316 315 316 315 314 314 313 313 313 312 313 313 313 312 312 312 312 313 312 313 313 313 315 313 309 307 308 308 307 307 307 306 305 304 303 302 301 300 299 299 298 298 298 298 298 297 297 297 296 296 295 295 295 295 295 295 294 294 293 292 292 291 291 290 290 290 290 290 291 291 291 290 290 289 289 289 289 289 289 289 289 288 288 288 288 288 288
316 316 317 317 317 316 315 316 316 315 315 318 318 315 313 313 313 312 312 312 313 313 313 313 313 313 312 312 312 313 313 314 318 319 311 305 306 306 306 305 306 306 304 303 302 301 300 299 299 299 298 298 298 298 298 297 297 296 296 296 295 295 295 295 295 294 294 293 293 292 291 291 290 290 290 290 290 290 290 291 291 290 290 289 289 289 289 289 289 289 289 288 287 287 288 288 288
316 316 317 317 317 316 315 315 316 314 315 319 318 315 312 312 312 312 312 312 312 313 313 314 314 314 313 313 313 313 312 314 318 321 314 307 305 304 304 304 304 304 303 302 301 300 300 299 299 299 298 298 297 297 297 297 297 296 296 296 295 295 295 294 294 294 294 293 292 292 291 291 290 290 290 290 290 290 290 290 290 290 289 289 289 289 289 289 289 288 288 287 286 287 287 287 287
316 317 316 316 316 316 315 314 317 317 317 318 315 314 314 314 314 314 314 313 313 313 313 313 314 314 314 314 314 314 314 314 317 319 314 309 306 303 302 303 303 302 302 301 301 300 300 299 299 299 298 298 297 297 297 296 296 295 295 295 294 294 294 294 293 293 293 292 292 292 291 291 290 289 289 289 289 289 290 290 290 289 289 289 288 289 289 289 289 288 287 287 286 286 287 287 288
314 316 318 316 316 316 316 317 317 319 322 319 316 317 316 316 317 314 314 314 313 313 313 313 313 313 313 313 313 314 314 316 317 316 313 309 306 302 301 301 302 301 301 301 301 301 300 300 299 299 298 298 297 297 297 296 296 295 295 294 293 293 293 293 293 293 292 292 292 291 291 290 289 289 289 289 289 289 289 289 289 289 288 288 288 288 288 288 288 288 287 286 286 286 287 287 287
314 320 323 319 317 318 318 319 319 323 327 321 319 322 318 317 318 316 316 318 317 316 315 314 313 313 313 313 314 313 314 318 318 313 310 308 306 303 301 300 300 301 301 301 301 300 300 300 299 299 298 297 297 297 296 296 296 295 295 294 294 293 292 292 292 292 292 292 292 291 291 290 289 288 288 288 288 288 289 289 289 288 288 288 288 288 288 288 288 288 287 286 285 286 287 287 287
316 323 328 323 321 322 321 321 323 326 324 318 320 323 319 317 316 317 318 319 319 318 316 316 314 314 314 314 315 314 315 319 318 313 309 307 306 304 301 300 300 301 300 300 300 300 300 299 299 298 298 297 297 296 296 296 296 295 295 294 294 293 293 293 292 292 292 291 291 291 291 290 288 288 288 288 288 288 288 288 288 288 288 288 288 288 288 288 288 288 287 286 285 286 286 286 286
318 321 324 322 322 322 321 319 322 325 320 317 320 319 318 317 315 316 316 315 316 315 315 317 315 315 315 314 315 314 315 318 318 313 309 307 305 302 300 300 300 300 300 300 300 300 299 299 298 298 297 297 297 296 296 296 296 295 295 294 293 293 293 292 292 292 291 291 291 291 290 289 288 288 288 287 287 288 288 288 288 287 287 287 287 288 288 288 288 287 286 285 285 285 285 285 285
319 319 322 327 329 324 320 317 318 322 320 318 320 318 316 317 315 316 315 314 315 314 313 314 314 315 315 314 315 314 315 318 317 312 308 306 303 301 301 300 299 300 300 300 299 299 299 298 298 297 297 297 296 296 296 296 295 295 294 294 293 293 292 292 292 291 291 291 291 290 290 289 288 288 288 287 287 287 287 287 287 287 287 287 287 287 288 288 288 287 286 285 284 284 284 284 284
316 317 321 327 333 328 324 323 319 318 318 319 321 319 316 317 318 317 315 316 318 315 314 314 313 315 314 314 315 313 314 320 318 312 308 305 302 300 300 299 299 299 299 299 299 298 298 297 297 297 297 296 296 296 296 295 295 294 294 294 293 293 292 292 291 291 291 291 290 290 289 289 288 288 288 287 287 287 287 287 287 287 287 287 287 287 287 287 287 286 285 284 284 284 284 284 284
315 321 322 323 330 330 326 324 320 317 318 319 320 320 317 316 317 317 316 317 317 315 316 318 318 318 315 314 315 314 314 318 318 313 309 307 304 302 299 297 298 298 298 298 298 298 298 297 297 297 296 296 296 295 295 295 295 294 294 294 293 293 293 292 291 291 291 290 290 289 289 289 289 289 288 287 286 286 286 286 286 286 286 287 287 286 286 287 287 286 285 284 284 284 283 283 283
315 321 321 319 324 324 321 323 323 320 319 318 317 317 316 315 316 316 316 318 318 316 318 320 321 322 318 317 318 315 315 320 319 314 310 307 305 304 300 297 297 297 297 298 297 297 297 297 297 296 296 296 295 295 295 295 294 294 294 294 293 293 293 292 292 291 291 291 290 289 289 289 289 288 288 287 287 287 287 287 287 287 287 287 286 286 286 286 286 286 285 284 283 283 283 283 283
315 318 320 320 320 319 319 324 326 321 321 321 316 316 317 316 318 319 315 315 317 316 316 318 320 322 321 323 323 318 319 324 320 313 310 307 305 304 301 297 296 296 297 297 297 297 297 297 296 296 296 296 295 295 294 294 294 294 294 294 293 293 292 292 292 292 291 291 290 289 289 289 289 289 288 288 287 287 287 287 287 287 287 286 286 286 286 286 286 285 284 283 283 283 282 282 282
314 316 319 318 323 326 322 324 323 319 326 327 316 318 322 317 318 321 317 314 315 316 316 316 316 317 317 321 322 321 326 327 319 313 310 306 305 303 299 297 296 297 297 297 297 297 296 296 296 296 296 295 295 295 294 294 294 294 294 293 293 293 292 292 292 292 291 291 290 290 290 289 289 289 289 288 287 287 287 287 286 286 286 286 286 286 286 286 285 284 283 283 283 283 282 282 282
315 318 318 314 321 326 318 321 322 317 323 324 316 322 327 317 313 317 316 315 315 315 316 314 315 315 316 317 318 323 330 328 319 314 311 308 306 301 297 296 296 296 296 296 296 296 296 296 296 296 296 296 295 295 294 294 294 293 293 293 293 293 292 292 292 292 291 291 291 290 290 290 290 289 289 288 287 287 287 286 286 286 286 286 285 285 285 285 285 284 283 283 283 282 282 282 282
316 316 317 314 319 320 316 322 324 316 317 318 315 320 322 316 315 316 315 315 314 315 314 314 317 316 316 316 315 325 336 330 319 314 311 309 307 301 296 296 296 295 296 296 296 296 296 296 296 295 295 295 295 295 294 294 293 293 293 293 293 292 292 292 292 291 291 291 291 291 290 290 290 289 288 288 287 287 286 286 286 286 286 285 284 284 285 285 284 284 283 283 282 282 281 281 281
316 318 317 315 319 320 320 325 325 319 318 318 316 317 315 315 317 317 316 315 316 318 316 315 316 315 315 314 315 327 336 325 315 313 311 308 307 303 297 295 296 296 296 296 296 296 296 296 296 295 295 295 295 294 294 294 293 293 292 292 292 292 292 292 291 291 291 290 290 290 290 290 289 288 288 288 287 286 286 286 286 286 285 284 284 284 284 284 283 283 282 282 281 281 281 281 280
316 320 317 317 320 321 321 322 321 319 318 318 317 316 315 314 314 314 316 317 317 319 316 313 313 313 314 314 314 321 328 323 318 317 313 309 308 304 297 295 296 296 296 296 296 295 295 296 296 295 295 295 294 294 294 294 293 293 292 292 292 292 292 291 291 291 290 290 290 290 289 289 289 288 288 287 287 286 286 286 285 285 285 284 284 284 284 283 283 282 282 281 281 280 280 280 280
314 316 316 316 318 321 323 320 319 320 318 317 317 317 316 315 315 314 315 317 318 317 315 315 315 313 312 313 314 318 327 330 328 323 316 311 308 303 297 296 297 296 296 296 295 295 295 295 295 295 295 295 294 294 293 293 293 292 292 292 291 291 291 291 291 290 290 290 290 290 289 289 288 288 287 287 286 286 286 285 285 285 284 284 284 283 283 283 282 282 281 281 280 280 280 280 279
315 315 317 315 313 319 321 317 317 318 316 316 317 316 315 314 316 315 312 315 317 316 317 317 317 318 317 317 319 325 334 338 334 327 316 310 307 302 297 297 298 296 296 295 295 295 295 295 295 295 294 294 294 294 293 293 293 292 292 291 291 291 290 290 290 290 290 289 289 289 289 288 288 287 287 286 286 286 285 286 285 285 284 284 284 283 283 283 282 281 281 280 280 279 279 279 278
317 315 316 315 313 316 317 315 317 317 315 316 316 316 315 313 316 315 312 314 315 314 315 317 321 327 331 331 331 334 337 339 339 331 317 309 308 304 298 297 297 296 295 295 295 295 294 294 295 294 294 294 294 294 294 293 292 292 291 291 291 290 290 290 290 289 289 289 289 288 288 288 287 287 286 286 286 285 285 286 285 285 284 284 283 283 283 282 281 281 280 280 279 279 278 278 278
Wind_Speed
4 5 5 6 7 8 6 2 2 3 2 2 4 1 4 3 2 1 1 0 2 1 1 3 3 3 3 3 6 6 2 2 4 4 2 5 15 17 17 17 14 12 11 10 9 9 10 10 10 9 10 10 9 9 9 9 9 8 8 9 8 8 8 8 8 8 8 7 7 7 7 7 7 6 6 6 5 4 4 4 4 4 4 5 5 5 5 5 5 4 4 4 4 3 2 3 3
3 4 5 4 5 4 2 3 3 3 3 3 4 3 4 2 2 2 3 2 2 3 1 4 5 5 4 5 7 4 2 2 2 4 2 12 18 16 20 18 14 13 13 12 10 10 11 11 10 10 10 11 10 10 10 9 9 8 8 9 9 8 8 8 8 8 7 6 5 4 4 5 5 5 6 6 4 3 4 4 4 4 4 4 4 4 3 3 5 5 4 4 3 3 3 3 3
3 4 6 4 2 1 1 3 2 0 2 3 5 4 2 2 1 2 2 3 5 5 3 4 4 3 3 4 4 1 2 0 3 4 4 16 16 17 23 19 16 15 15 14 12 10 10 10 10 10 11 11 10 10 10 9 9 9 9 10 10 9 9 9 9 8 7 6 5 5 5 6 6 6 7 5 5 4 4 4 4 5 5 5 5 4 1 1 3 3 2 3 3 3 4 4 4
4 4 6 5 2 3 3 2 2 3 1 4 3 6 3 4 6 3 2 4 4 2 3 3 3 1 2 2 1 2 3 2 5 7 7 17 19 23 26 21 18 16 16 14 12 11 9 10 10 10 10 10 10 10 10 10 9 9 9 10 10 10 10 10 9 9 8 7 8 9 8 8 8 8 7 6 6 5 5 4 4 4 4 5 5 4 2 1 1 1 2 3 4 5 5 6 6
4 3 3 3 3 1 2 1 1 2 3 4 2 6 4 6 7 5 3 2 1 2 3 4 1 2 1 2 1 2 4 2 6 9 12 18 22 27 26 24 20 15 16 14 13 12 10 10 9 9 9 9 9 9 9 9 8 8 8 9 9 9 9 10 10 9 9 9 10 10 9 9 9 8 7 6 5 5 4 4 3 3 3 3 3 3 4 4 4 4 3 4 6 6 7 7 8
4 4 2 2 1 1 2 1 2 2 5 5 3 6 5 7 7 6 3 2 3 3 2 3 3 1 1 1 1 3 5 5 8 11 17 20 23 29 25 24 21 17 17 15 14 13 11 11 10 10 10 10 10 10 10 9 9 8 8 8 8 7 7 8 9 8 8 8 8 8 8 8 7 6 6 5 5 5 4 4 4 3 3 3 2 3 4 5 5 5 5 6 7 8 8 9 9
5 5 2 3 2 1 2 3 4 4 6 5 5 4 6 7 7 8 4 2 3 3 2 1 4 4 0 1 1 1 3 6 9 12 19 22 26 29 25 24 22 20 18 16 15 14 14 13 12 12 12 12 12 12 11 11 10 9 9 9 8 8 8 8 7 7 6 6 6 6 6 6 6 6 5 5 5 5 5 5 5 5 4 4 3 3 3 4 5 5 6 7 8 8 9 9 10
3 2 1 4 2 2 1 4 4 4 5 4 4 4 8 9 7 7 5 3 0 1 0 1 5 4 4 3 1 3 2 5 7 14 21 24 29 29 25 25 24 22 19 17 16 15 15 14 14 14 14 14 13 13 12 12 11 10 10 9 9 9 8 8 7 7 6 5 5 5 5 5 5 5 5 5 5 5 5 5 6 6 6 6 5 5 4 5 5 5 5 6 7 7 8 8 9
1 0 2 3 1 2 1 4 4 4 6 5 3 3 7 9 7 7 6 3 2 3 3 3 6 3 3 2 2 3 1 6 10 18 22 25 30 28 26 27 26 24 20 18 17 16 16 16 16 15 15 15 14 14 13 12 11 10 9 9 9 8 8 7 7 6 6 5 5 5 5 6 6 6 6 6 6 7 7 7 8 8 8 8 8 7 7 7 7 7 7 7 7 8 8 8 8
1 1 2 2 1 2 4 4 4 4 6 5 4 5 7 7 6 7 6 4 4 5 5 5 4 2 2 2 3 2 4 12 18 22 23 26 29 27 26 26 26 24 22 20 18 17 17 17 18 18 17 16 15 14 13 11 10 9 8 8 8 7 7 7 7 6 6 6 6 6 6 7 7 8 8 8 8 9 9 10 10 10 10 10 10 10 10 10 10 10 10 10 10 10 10 10 10
2 2 2 2 1 2 4 4 4 5 5 3 3 5 7 7 6 5 6 4 4 5 4 4 2 3 1 2 3 1 11 19 21 25 25 26 28 26 25 25 24 23 23 21 19 19 18 19 19 19 18 17 15 14 12 10 9 8 7 7 7 7 7 7 7 7 7 6 6 7 7 7 8 8 8 9 9 9 10 10 10 10 10 10 10 10 10 10 10 10 11 11 12 12 12 13 13
2 2 3 2 2 3 4 3 6 6 6 3 2 4 4 6 5 4 6 4 4 5 5 6 4 5 3 4 3 2 16 22 21 24 24 26 27 25 25 25 24 22 22 20 20 19 18 19 20 19 17 17 16 14 12 10 9 8 8 8 8 8 8 8 8 8 8 7 7 7 7 8 8 8 9 9 9 9 9 9 9 9 9 9 9 9 9 10 10 10 11 11 11 12 12 12 13
1 1 4 1 4 3 3 3 6 5 5 3 3 4 1 5 3 6 6 4 6 6 6 9 5 5 4 3 2 1 13 21 21 22 24 27 26 24 25 26 24 23 21 20 19 19 19 19 19 19 18 17 16 14 12 11 10 9 9 9 9 9 9 9 9 9 9 8 8 8 8 8 8 9 9 9 9 9 9 9 8 8 8 9 9 9 9 9 9 10 10 11 11 11 11 11 11
1 1 4 2 2 1 4 3 5 4 4 4 2 2 2 2 5 5 5 3 6 6 5 8 7 4 3 1 1 3 11 21 22 22 24 27 24 24 25 25 24 22 21 20 19 19 21 21 21 20 18 18 17 15 13 12 12 11 11 10 10 11 11 11 10 10 10 10 10 10 10 10 10 10 9 9 9 9 9 8 8 8 8 8 9 9 9 9 9 10 10 10 10 10 10 10 10
2 0 3 1 3 3 3 3 5 5 5 4 3 3 2 1 3 3 5 5 6 5 1 4 5 2 4 5 5 6 16 25 24 24 25 25 23 23 24 24 23 22 22 21 19 20 21 22 22 21 19 19 17 16 15 14 14 13 13 12 12 12 12 12 12 13 13 13 13 13 12 12 12 11 10 10 9 9 9 9 9 9 9 9 9 10 10 10 10 11 11 10 11 11 11 11 11
2 2 3 1 3 2 3 3 3 4 5 5 3 4 3 4 1 1 4 3 2 3 1 4 5 3 4 7 6 7 21 29 26 25 25 23 21 21 22 22 22 22 22 21 21 21 22 24 23 22 21 20 19 17 16 15 15 15 15 15 15 15 15 15 15 16 15 15 14 14 14 13 12 11 11 10 10 10 10 10 10 10 10 10 11 11 11 11 11 12 12 12 12 12 12 12 12
3 4 2 3 3 2 4 3 2 3 5 5 3 3 5 5 3 0 1 2 2 2 2 4 4 2 2 4 4 12 26 30 28 27 25 24 21 21 21 22 22 22 23 23 23 22 23 24 24 24 22 21 20 19 18 17 16 16 17 17 17 17 17 17 16 16 16 15 13 12 12 12 11 10 10 10 10 10 10 10 10 11 11 12 12 12 12 12 11 12 12 12 13 13 13 12 13
4 3 2 3 3 4 5 4 4 3 2 4 4 4 6 3 3 1 1 2 3 3 4 4 5 3 2 5 12 21 30 31 30 29 26 24 22 21 22 24 25 25 26 25 24 24 25 25 25 25 24 23 21 20 19 18 17 17 17 18 18 17 17 16 15 15 14 13 11 9 10 10 10 9 9 9 10 10 10 10 10 11 11 12 12 12 12 12 12 12 12 13 13 14 14 14 14
3 3 2 4 5 5 4 4 4 2 2 4 5 5 5 5 4 1 2 6 4 5 6 3 7 6 3 9 18 25 30 31 31 29 26 25 25 24 23 25 26 27 29 29 28 27 27 26 26 26 25 25 23 22 20 18 18 17 18 18 17 17 16 16 15 15 13 12 11 9 9 10 9 8 8 9 9 9 8 9 10 10 11 11 11 11 12 12 12 12 12 13 13 14 15 15 15
2 3 2 6 7 5 6 5 4 3 3 4 3 3 4 6 4 3 4 6 6 8 8 5 9 11 6 8 16 24 26 27 28 27 26 26 27 27 26 27 29 31 34 33 32 30 29 28 27 27 26 26 25 23 21 19 19 18 18 18 17 16 16 15 15 15 13 12 11 10 10 10 10 9 8 8 8 7 8 8 9 10 10 11 11 11 11 12 12 12 12 13 13 14 15 15 16
2 4 5 7 4 4 8 7 4 2 1 3 1 1 3 5 4 4 4 4 9 9 10 10 12 13 10 8 12 20 22 22 24 25 24 25 27 27 28 31 33 34 34 33 32 32 32 31 29 28 27 27 26 24 22 21 20 19 19 18 17 16 16 16 15 15 14 12 12 11 11 11 10 9 8 8 8 7 7 7 8 9 9 10 11 11 12 13 13 13 13 13 14 14 14 15 16
2 5 8 9 5 5 8 7 4 2 2 2 1 2 5 3 3 5 6 7 11 7 8 12 13 12 11 13 14 16 16 17 20 22 24 25 27 28 28 30 30 29 30 33 35 35 34 33 31 30 29 29 27 25 23 22 22 21 20 20 19 18 17 17 16 16 14 13 13 12 12 11 10 9 8 7 7 6 6 7 7 8 8 9 11 12 12 14 14 15 15 14 14 14 14 14 14
4 6 6 8 7 6 7 5 5 3 2 3 3 3 3 2 5 6 9 14 14 6 7 10 11 11 13 16 14 14 15 15 19 24 27 28 29 31 31 31 31 31 32 36 38 37 36 35 33 32 31 31 29 26 24 23 23 21 21 21 21 20 19 18 17 16 15 14 14 13 12 11 10 9 8 7 7 6 6 6 6 7 7 8 10 11 13 14 15 15 15 14 14 13 13 13 13
7 7 5 7 7 8 8 6 6 6 7 7 3 2 2 6 7 4 9 18 16 9 6 8 8 7 10 13 14 15 17 17 22 30 33 33 35 38 36 34 34 34 34 36 37 37 38 37 35 34 33 33 31 28 26 25 24 23 22 22 22 21 20 20 18 17 16 15 15 14 12 11 10 9 8 7 6 6 5 5 5 5 6 8 9 11 13 14 15 15 15 14 14 14 14 14 14
7 7 5 5 6 7 8 7 7 7 7 5 2 6 8 9 4 7 15 18 14 10 7 9 9 6 7 11 15 15 15 17 22 26 30 33 34 33 32 32 31 31 34 36 36 38 39 38 37 36 36 34 32 30 28 28 26 25 24 24 23 21 20 20 18 18 17 16 15 14 13 12 11 10 9 8 6 6 5 4 4 4 6 8 9 11 12 14 14 15 15 15 15 15 15 14 14
6 6 5 5 6 7 7 8 9 7 6 4 4 11 10 6 2 10 22 20 13 9 8 10 9 9 9 10 14 15 15 17 19 24 29 32 29 27 30 31 31 33 37 36 37 39 39 39 39 39 38 36 34 32 31 30 28 27 26 25 24 22 21 20 19 18 17 17 16 15 14 13 12 10 9 8 7 6 5 4 3 4 6 8 9 11 12 13 14 15 16 16 16 16 15 14 14
4 4 6 8 8 8 6 9 11 7 6 6 9 14 9 3 2 10 20 12 8 9 11 12 9 11 12 10 12 14 15 19 24 26 24 23 24 28 32 32 34 37 36 36 38 40 39 40 41 40 39 37 35 34 33 32 31 30 28 26 25 24 23 21 20 18 18 18 17 16 15 13 12 11 10 8 7 6 4 3 2 4 6 7 9 11 12 13 14 15 15 16 15 15 14 13 13
3 4 8 12 8 9 10 11 13 6 5 8 11 11 8 1 5 15 21 6 4 8 11 11 10 12 12 11 11 10 12 20 26 23 19 22 28 32 33 36 39 37 36 39 40 39 39 41 41 41 40 38 37 36 35 34 33 31 30 28 26 25 24 23 21 20 19 19 19 18 16 15 13 12 11 9 8 6 4 2 1 3 5 7 9 10 11 12 13 13 13 13 13 13 13 13 13
4 2 6 14 8 10 16 13 11 6 4 7 8 5 9 6 12 21 23 8 3 8 10 10 10 11 11 11 10 9 12 17 19 19 25 30 33 35 36 40 41 38 38 39 38 38 40 41 41 41 40 39 39 38 36 35 34 33 31 29 28 26 25 24 22 22 21 20 20 19 18 16 14 13 12 10 9 7 5 3 1 2 4 6 8 9 10 11 11 12 12 12 12 12 13 14 15
4 1 2 10 8 9 15 9 7 7 5 9 10 3 9 12 18 22 19 11 7 10 12 12 10 10 10 10 10 11 13 13 15 23 32 33 33 35 37 38 38 38 36 35 38 40 41 41 41 41 41 40 40 39 37 36 35 34 32 30 29 28 27 25 24 24 22 22 22 20 19 17 16 15 13 12 10 8 7 5 2 1 3 5 7 8 9 10 10 11 11 12 12 13 14 15 16
3 2 2 4 3 8 11 3 3 3 4 9 10 4 11 14 16 16 13 10 10 11 14 13 11 10 9 9 10 12 13 13 19 29 33 33 33 35 35 35 36 38 36 36 40 42 41 42 41 41 41 40 40 39 38 37 35 34 33 31 30 30 28 27 26 26 24 23 22 21 20 18 17 16 14 13 11 9 8 6 3 1 2 4 5 6 7 8 10 11 11 12 12 13 14 15 17
1 2 5 3 4 8 11 5 5 6 4 6 9 4 12 16 15 13 10 9 10 11 14 13 11 12 11 10 10 12 14 14 19 28 31 31 32 34 34 35 36 39 39 39 41 41 41 42 41 41 40 40 39 39 38 37 35 34 33 32 31 30 29 29 28 27 26 25 23 22 21 19 17 16 15 13 12 10 8 6 4 2 1 3 4 5 6 8 9 10 10 11 13 14 15 16 16
2 4 6 6 5 6 8 7 6 9 5 4 9 6 9 11 10 11 7 7 10 10 13 13 12 12 11 11 10 11 13 12 14 21 26 29 32 35 36 36 38 41 41 41 40 41 41 41 41 41 41 40 39 38 38 36 35 34 33 32 31 30 30 30 29 28 27 26 25 24 22 20 18 16 15 13 12 11 9 7 5 3 2 1 3 4 5 7 8 9 9 10 12 13 15 16 16
4 3 5 7 7 5 5 7 3 6 7 7 11 8 12 13 9 9 8 5 7 9 11 13 12 11 10 10 11 12 13 13 13 16 23 29 32 35 37 38 39 40 40 40 41 42 42 41 41 41 40 40 39 38 37 36 35 33 32 31 30 30 30 30 30 29 28 27 26 25 23 22 19 17 16 15 13 12 10 8 6 4 3 1 2 3 4 5 7 8 9 9 10 12 13 15 17
4 4 4 5 7 7 9 9 2 6 5 7 8 8 16 20 14 13 12 8 7 8 10 11 11 11 11 11 12 13 13 15 16 16 22 29 32 35 36 37 37 38 39 39 40 41 40 40 40 39 39 40 39 38 37 36 34 33 32 30 29 29 30 30 30 30 29 27 27 26 24 23 21 19 18 16 14 13 11 9 7 5 3 1 1 2 3 4 5 6 8 8 9 10 12 13 16
5 6 5 6 7 7 12 12 5 7 5 6 10 11 16 20 18 17 16 12 10 10 10 10 11 11 12 12 13 12 13 16 16 16 22 28 32 34 35 36 36 37 38 39 40 40 40 40 40 39 40 40 39 38 38 36 34 33 32 31 31 31 31 31 30 30 29 28 27 26 25 24 22 20 19 17 16 14 12 10 8 6 4 2 1 0 2 3 4 6 7 8 10 11 12 13 15
7 8 8 9 8 10 13 13 7 7 6 8 12 15 17 19 19 17 14 10 10 12 12 12 12 12 13 16 16 14 15 16 13 12 21 28 30 32 34 34 34 34 36 38 40 41 41 42 42 41 41 42 42 41 40 39 38 36 35 35 35 34 33 32 31 30 29 29 28 26 25 24 23 21 20 19 17 15 13 11 9 7 6 4 2 1 1 3 4 5 6 7 10 12 14 14 15
11 10 10 10 8 12 14 11 8 6 5 8 12 14 16 18 19 15 10 8 10 14 14 15 15 14 14 16 18 18 15 13 9 8 14 20 25 29 31 32 34 35 36 39 41 41 41 42 43 43 43 43 44 44 43 42 41 40 38 38 37 36 35 35 34 33 31 30 28 27 25 24 23 22 20 19 18 16 14 12 11 9 7 6 4 2 0 2 3 4 5 7 8 11 14 13 13
10 8 8 9 7 10 13 10 8 4 5 8 10 12 14 15 17 15 11 10 12 14 15 17 15 14 15 16 17 18 15 12 9 6 7 14 21 26 29 31 35 37 37 39 40 40 40 41 42 42 43 44 44 44 44 42 41 39 37 36 36 35 35 35 34 33 32 30 29 27 26 25 24 22 21 20 19 17 15 13 12 10 8 7 5 3 1 1 2 3 5 7 7 9 12 12 11
8 8 8 8 7 8 10 7 5 3 5 6 7 9 10 10 13 14 14 13 13 15 17 17 15 14 17 18 16 16 16 13 9 6 6 10 16 22 26 29 32 33 34 36 38 40 41 42 43 43 44 44 44 44 43 41 39 37 34 33 34 33 32 33 31 30 31 30 29 28 27 26 25 23 22 21 20 18 16 14 12 11 9 7 6 4 2 1 2 3 4 5 6 7 9 9 9
11 12 10 11 11 12 13 7 4 4 5 5 5 9 9 9 14 16 13 11 13 15 16 16 15 15 17 18 16 16 17 14 9 8 8 9 12 18 24 28 30 32 35 38 41 42 42 43 44 44 44 45 45 44 43 40 38 35 31 28 29 28 27 29 30 30 31 31 32 32 30 29 27 25 24 22 21 19 17 15 13 12 10 8 6 4 3 2 2 3 4 4 4 6 9 9 10
13 11 12 16 15 14 14 8 7 5 6 4 1 7 9 7 13 16 9 7 10 10 12 16 15 15 15 16 16 16 15 11 9 10 11 10 11 14 20 25 29 31 36 40 42 44 43 44 45 44 44 44 44 44 43 41 39 38 35 33 32 29 28 32 36 37 37 37 36 35 32 31 29 27 25 23 22 20 18 16 14 13 11 9 7 6 5 3 3 3 4 5 5 6 8 10 11
11 7 11 15 12 11 10 6 3 3 6 4 3 1 9 6 7 11 8 8 11 10 10 14 13 13 13 13 14 13 11 8 8 9 10 11 11 12 16 24 30 32 35 38 40 42 43 44 45 45 44 44 44 44 43 43 41 40 40 39 38 36 34 36 39 39 39 39 37 35 34 32 30 28 26 25 23 20 18 17 15 14 12 10 9 8 6 5 4 4 5 6 6 7 8 10 13
8 2 7 9 8 9 7 4 5 4 4 5 2 3 7 12 7 10 11 11 11 10 10 12 13 13 14 14 13 13 11 8 9 9 10 12 12 13 17 25 32 32 34 37 39 41 42 43 44 44 43 43 43 43 44 45 44 43 42 40 39 39 38 38 37 37 38 38 37 36 34 32 31 29 28 26 23 21 19 18 16 14 13 12 11 9 7 6 5 5 7 7 8 9 9 10 12
5 2 5 5 5 5 2 2 4 2 4 5 4 6 3 14 8 8 10 11 10 11 12 14 14 14 14 15 14 14 12 9 10 11 12 13 13 17 22 27 29 30 33 38 39 40 41 41 42 42 42 42 42 44 46 46 46 44 43 40 38 38 37 35 35 36 36 36 36 36 35 33 32 30 28 26 24 22 20 19 17 16 14 13 12 10 8 7 6 7 7 8 8 10 10 11 12
3 5 4 5 3 2 4 1 1 3 5 7 5 7 3 14 9 6 5 6 8 10 12 13 13 13 14 13 13 14 12 7 9 11 12 13 15 20 23 23 25 28 32 36 37 37 38 38 39 41 42 42 43 44 46 46 45 44 43 43 40 38 35 32 32 34 35 35 35 36 35 35 33 31 29 27 25 23 21 19 18 16 15 13 13 11 9 7 7 7 7 7 8 9 10 10 11
1 5 4 6 5 5 4 1 4 2 9 6 9 11 7 9 6 6 5 6 10 10 8 9 10 10 12 12 12 14 11 7 7 9 9 9 12 16 19 20 24 27 29 31 33 34 36 37 38 40 41 42 42 44 46 46 46 45 45 45 43 40 37 34 34 34 35 35 36 36 36 35 34 33 31 28 26 23 22 20 18 17 15 14 13 11 9 7 7 7 7 7 8 8 9 9 10
3 4 4 4 5 4 5 5 5 2 10 5 12 13 11 10 6 3 3 5 7 9 8 9 10 11 12 11 11 13 10 7 7 7 7 7 8 11 14 18 22 25 27 30 32 34 35 37 38 39 40 41 42 44 46 46 46 46 45 45 44 43 41 40 38 38 38 38 38 37 36 35 34 33 31 29 27 25 23 22 20 18 16 15 13 11 10 8 7 8 7 8 8 8 9 10 12
4 4 5 1 4 3 3 4 1 4 8 5 9 9 8 12 7 2 7 8 6 8 8 10 11 11 11 10 12 12 7 6 7 7 8 8 9 10 11 15 21 25 29 31 32 34 35 37 38 39 41 42 42 43 45 47 47 48 47 45 44 43 42 43 42 41 41 41 40 39 38 38 37 35 34 32 30 27 26 24 22 20 18 15 13 12 10 8 8 8 8 8 9 10 11 12 14
6 6 6 5 3 1 2 4 3 5 7 6 5 6 5 9 4 7 13 13 12 10 9 11 11 11 12 11 12 11 6 7 7 8 9 10 11 11 11 15 20 24 28 31 33 35 35 36 38 40 40 41 42 43 45 46 48 49 48 46 45 43 43 44 43 42 42 42 41 42 42 41 41 40 38 35 32 29 27 25 22 20 17 15 14 12 10 9 8 8 9 10 10 11 11 12 14
7 6 6 5 5 4 4 5 6 6 6 5 3 5 4 5 2 8 12 11 10 8 10 11 9 10 10 9 11 10 6 6 6 7 9 10 11 11 11 16 20 24 27 30 33 35 35 37 40 40 40 41 43 44 45 47 48 48 47 46 45 45 44 43 43 43 43 43 43 43 43 43 42 41 39 36 33 30 28 25 22 20 18 16 15 13 11 9 9 9 10 11 11 11 11 12 13
4 5 4 3 5 6 4 6 6 2 4 6 3 4 6 4 5 7 8 9 9 8 8 7 7 10 8 9 12 8 5 6 6 7 8 9 9 9 11 16 20 22 25 29 32 35 38 39 40 41 42 43 44 46 47 49 48 45 46 47 46 45 44 43 43 43 44 45 45 44 44 43 42 40 38 36 32 30 28 25 23 21 19 17 15 13 11 10 10 10 11 11 11 10 11 12 13
2 4 5 5 4 6 4 6 3 1 4 7 4 5 6 5 7 7 4 6 7 6 7 6 10 12 10 11 12 6 5 6 6 7 8 9 9 9 12 17 20 23 27 33 37 40 41 39 39 40 41 40 43 46 47 47 45 43 45 46 47 46 46 46 46 45 45 45 45 45 44 43 41 40 37 35 32 29 27 25 23 21 19 17 15 13 12 11 11 10 10 11 11 11 12 14 14
6 4 6 3 3 2 3 2 2 1 6 7 7 10 8 6 8 5 6 6 7 8 9 10 11 10 9 12 11 5 5 6 6 6 7 7 8 9 12 17 23 28 33 37 39 39 38 38 39 40 40 42 45 45 44 44 44 44 46 47 47 48 48 47 46 44 44 44 44 44 43 42 41 39 37 35 32 30 28 25 23 21 20 18 16 14 12 11 10 10 10 11 11 12 13 14 15
5 3 3 3 1 2 2 3 3 5 8 7 10 14 9 7 7 4 4 6 9 10 9 9 9 9 8 11 11 7 5 6 5 7 7 7 9 9 12 18 24 29 32 32 32 32 34 37 39 40 42 43 42 40 41 43 44 45 45 46 47 47 46 45 43 42 42 43 44 44 43 41 40 38 37 35 34 32 29 27 25 23 21 18 16 14 12 11 10 10 11 11 12 12 14 14 14
1 1 2 1 3 4 3 4 4 5 9 8 10 12 10 9 6 3 7 8 8 9 7 6 8 8 8 9 9 7 5 6 6 7 8 9 9 9 13 20 24 27 29 28 28 31 34 37 37 39 40 39 38 39 41 43 43 44 43 43 44 44 44 43 42 42 42 43 43 43 42 41 40 38 37 36 35 33 31 29 26 24 21 19 16 14 12 11 11 11 11 12 12 12 13 15 15
2 1 3 3 3 1 1 3 2 5 8 7 8 9 10 8 4 7 5 2 4 6 3 5 7 6 8 7 7 7 6 7 8 8 8 9 8 9 15 20 21 21 23 26 30 33 34 34 36 39 38 36 38 40 42 43 44 43 42 42 43 43 42 42 42 42 42 42 42 43 42 41 40 40 39 37 36 34 32 29 27 24 21 19 17 15 13 12 12 12 12 12 12 12 14 15 16
7 7 7 7 6 4 4 7 5 4 6 5 7 9 10 8 3 6 5 4 5 6 4 6 7 7 7 7 7 8 7 7 8 8 8 8 8 10 13 17 18 18 22 27 30 31 33 35 38 39 37 37 41 43 45 45 43 41 42 42 41 40 40 40 41 42 42 43 43 43 43 42 41 41 40 38 37 34 32 29 26 24 22 20 17 15 14 13 13 13 13 13 13 14 15 16 16
Wind_Direction
109 106 80 56 11 353 334 57 66 321 89 284 272 233 266 245 208 97 54 25 78 352 21 80 59 62 96 138 152 142 117 169 174 141 205 172 148 155 148 144 159 170 171 166 159 156 151 146 144 138 135 131 130 123 119 122 123 138 131 113 115 114 110 106 104 102 99 100 102 103 102 97 94 92 85 80 83 87 86 86 88 93 90 77 68 50 42 44 47 52 47 43 41 38 20 355 347
108 92 68 48 4 2 298 83 84 327 45 305 278 203 243 305 38 108 190 174 137 197 136 97 82 81 96 127 136 113 35 2 115 129 141 143 146 156 149 148 160 170 168 163 160 157 151 143 137 131 129 125 124 120 118 126 129 143 136 117 122 118 110 107 106 110 111 125 136 121 104 90 85 83 83 84 96 111 108 110 109 111 107 90 86 69 46 54 59 58 50 43 39 36 38 32 22
87 57 40 27 348 48 23 46 94 71 42 271 277 250 222 77 130 133 173 161 169 174 101 70 65 78 39 50 102 98 215 289 116 106 122 152 157 161 155 151 155 167 168 162 164 164 151 141 136 130 128 125 124 124 121 125 124 133 131 115 119 117 113 114 110 114 118 137 142 117 101 91 91 89 91 101 104 111 119 123 120 117 109 90 86 85 74 83 76 65 36 8 11 14 17 16 10
75 49 23 30 38 33 56 53 155 150 220 240 274 272 219 152 176 151 138 180 192 136 78 63 45 13 39 77 119 65 165 197 160 139 149 176 173 162 157 155 157 166 167 164 171 176 160 147 141 135 134 132 130 127 123 122 119 127 126 111 113 115 115 116 112 111 109 115 110 102 100 95 94 95 97 105 102 100 106 110 111 109 105 95 90 86 68 40 20 6 337 332 340 349 352 349 345
65 52 11 39 79 36 82 109 158 143 222 217 252 270 221 163 168 165 158 187 212 75 105 118 83 293 68 168 213 125 177 143 161 154 153 179 175 161 159 161 162 168 173 175 178 181 168 154 149 146 146 146 145 140 134 131 133 140 134 119 116 113 112 113 109 108 106 107 105 102 101 99 96 97 98 100 99 93 89 85 86 87 84 83 76 65 45 28 11 358 344 332 329 331 336 337 339
34 35 14 30 110 145 95 276 279 250 239 197 225 260 198 166 164 156 130 46 27 38 81 117 147 164 46 296 44 159 182 131 152 167 159 169 171 164 162 162 166 177 181 181 183 187 173 161 157 156 157 157 159 156 154 154 153 153 150 147 144 135 130 127 122 120 118 117 115 112 109 108 105 103 102 98 93 85 78 68 61 57 57 58 56 51 41 31 16 1 346 337 332 329 332 332 331
16 14 20 38 4 67 107 233 238 245 252 200 202 225 172 170 162 135 129 78 20 360 23 131 143 113 243 237 61 183 174 146 155 174 169 163 165 165 162 161 169 179 181 181 184 185 173 166 165 164 165 164 163 163 161 160 158 158 158 158 160 158 156 152 148 145 140 134 127 122 117 116 113 108 103 97 90 83 78 69 64 58 53 52 52 52 44 33 16 1 345 339 337 335 334 332 330
16 360 65 80 22 9 119 252 248 210 251 238 205 193 165 166 156 134 157 170 113 234 328 267 118 99 258 193 172 261 176 174 172 172 166 157 160 163 161 164 171 176 178 180 178 175 171 170 170 169 168 167 165 164 163 161 160 159 159 160 162 164 162 161 160 156 151 147 137 131 124 119 116 112 108 101 93 85 80 75 73 66 63 60 56 58 56 46 29 12 358 351 347 345 342 339 336
341 25 44 79 73 330 289 275 270 228 248 257 236 202 168 165 152 136 157 166 146 169 210 190 121 129 243 192 219 285 191 172 161 161 162 159 161 161 162 171 177 175 177 181 178 173 171 173 173 172 170 170 168 165 164 162 161 160 160 163 165 165 165 165 162 156 149 142 132 125 117 113 108 106 104 97 91 87 83 78 75 70 65 61 56 56 55 50 40 30 21 17 13 10 5 360 354
347 52 80 76 94 311 301 271 258 265 254 225 210 199 171 168 152 141 150 173 171 156 207 174 121 188 202 201 227 289 186 163 153 158 164 164 162 162 165 177 184 180 180 183 184 180 176 176 174 174 173 171 170 167 165 162 162 163 165 167 168 166 164 162 157 151 142 131 123 116 108 104 101 101 98 94 91 87 83 77 73 67 61 56 52 48 45 43 37 32 29 27 26 24 22 19 16
20 335 94 79 48 262 267 257 259 275 277 235 212 214 178 161 136 148 153 167 178 147 174 148 146 221 174 245 253 220 170 164 163 163 165 166 164 165 169 178 187 187 186 184 185 184 181 179 177 176 175 174 171 168 166 166 169 171 176 178 175 169 161 156 150 143 135 125 117 111 104 100 98 98 95 92 88 83 79 73 67 61 57 52 47 43 39 38 35 32 30 29 29 28 27 25 25
66 315 75 100 213 219 230 257 274 274 295 301 232 253 187 137 121 176 176 168 172 150 174 173 176 172 154 257 274 143 161 170 176 168 167 168 166 168 173 179 186 191 191 188 186 184 183 182 180 179 178 177 173 172 173 173 179 183 186 186 178 171 162 156 149 141 135 128 122 115 111 107 102 99 96 93 89 85 80 73 68 61 55 52 48 44 40 39 37 37 35 35 35 34 32 31 33
126 206 85 159 210 204 254 278 281 286 308 277 216 254 130 115 173 199 179 172 166 160 206 196 157 138 177 245 289 178 172 180 180 172 169 168 169 172 175 179 185 192 193 193 189 184 184 185 184 182 182 180 176 176 179 180 186 189 190 189 179 171 163 158 152 147 142 137 133 127 123 118 113 109 104 101 96 91 85 78 71 64 60 56 53 50 47 45 42 42 41 40 40 37 36 37 38
193 195 117 245 263 233 257 269 285 295 290 262 233 246 105 120 216 189 155 186 193 185 224 199 145 122 205 226 268 238 196 188 179 174 170 168 174 175 175 179 185 190 194 197 193 187 186 186 186 186 186 183 182 181 184 187 189 191 192 190 180 171 166 162 158 154 152 148 143 139 135 129 125 120 116 112 106 101 95 88 82 76 71 66 63 60 56 53 50 47 44 42 42 39 37 37 36
186 273 104 250 314 310 246 230 262 264 256 239 207 179 133 238 200 165 177 198 233 224 219 185 152 136 201 191 226 230 192 185 177 173 170 170 177 178 180 182 185 190 195 199 196 192 189 189 189 189 190 188 188 188 190 191 190 191 191 189 182 174 170 167 165 163 159 153 148 144 139 134 131 127 124 120 114 108 101 96 92 87 80 77 73 66 62 58 55 51 48 44 41 38 36 34 32
139 89 62 322 280 289 252 233 247 246 253 232 208 148 134 285 208 151 223 169 246 272 115 191 192 184 184 190 227 201 178 176 172 172 170 171 176 179 185 186 188 191 195 199 197 196 192 192 192 192 193 192 192 192 194 193 190 189 187 187 181 176 173 171 169 164 158 151 148 145 138 133 129 126 124 118 112 105 101 98 92 87 82 80 74 66 63 59 55 49 46 43 38 37 35 33 31
66 78 73 284 249 240 235 238 239 212 249 258 266 151 154 284 314 131 260 130 198 252 211 222 226 209 185 199 183 156 162 166 167 168 168 170 173 175 182 187 190 191 195 199 199 199 195 194 195 195 195 195 195 195 196 193 190 187 184 184 179 177 173 169 165 157 151 146 145 141 129 122 119 117 115 111 106 100 97 93 86 81 75 73 69 64 62 59 56 49 43 40 37 33 31 30 29
63 91 170 246 232 224 210 218 239 188 231 247 246 203 165 235 274 299 330 276 238 233 247 249 263 286 66 135 144 148 157 161 164 166 167 171 174 175 181 187 190 193 195 197 200 201 200 197 196 196 196 197 197 197 197 193 191 189 184 182 178 176 170 165 159 150 146 141 136 132 121 116 114 112 111 107 102 98 94 87 81 76 71 69 65 59 57 53 50 46 42 37 33 29 26 24 24
123 151 198 235 215 228 233 239 261 269 227 209 230 219 182 206 208 131 242 260 255 237 254 238 249 270 76 123 141 149 156 161 168 170 172 176 180 183 186 189 192 196 196 197 199 201 203 200 198 199 199 200 198 197 197 193 192 189 185 182 178 175 169 164 158 151 149 144 139 137 134 130 126 122 118 111 105 101 95 88 83 79 74 69 63 57 52 47 42 39 37 32 30 28 24 23 22
182 169 223 245 223 249 277 276 266 259 217 178 231 221 196 228 189 136 222 256 255 228 235 210 231 239 189 151 149 154 161 167 174 177 180 186 189 190 191 192 196 200 201 200 198 198 202 202 201 200 201 203 201 198 196 193 192 190 185 182 179 176 171 166 160 158 158 154 150 150 152 144 136 133 127 119 113 106 98 92 86 80 71 64 59 52 47 43 38 34 31 28 26 24 23 22 21
188 167 207 238 222 271 276 274 260 218 140 150 226 326 253 248 173 170 185 256 265 233 222 212 223 229 196 177 169 165 168 174 181 185 189 193 196 198 199 199 202 205 204 201 199 198 202 204 203 201 202 206 205 202 197 195 193 189 185 182 181 178 174 171 166 166 167 163 158 159 162 152 143 140 136 127 117 108 99 91 81 71 59 52 46 40 38 34 30 29 27 24 23 23 22 20 19
201 210 216 234 231 270 269 264 240 173 100 133 300 290 251 241 176 197 178 221 254 222 211 217 222 229 195 180 182 175 176 181 187 192 197 199 202 204 206 207 206 206 205 203 202 202 203 205 205 203 203 206 208 205 199 197 195 190 187 184 183 182 179 175 172 173 171 168 166 167 169 160 150 147 144 135 121 112 101 86 71 61 49 40 36 30 28 25 22 23 21 20 22 21 20 20 20
224 251 231 238 234 248 266 269 247 208 196 216 228 236 223 271 264 230 198 227 244 208 193 209 217 228 203 183 177 181 188 189 193 197 200 201 204 206 207 207 206 206 206 207 206 203 204 204 205 205 204 205 207 206 200 198 198 194 191 189 187 186 184 182 179 179 176 175 174 174 177 169 158 156 151 142 129 118 103 83 65 53 42 32 29 24 22 21 19 18 18 17 17 17 18 17 17
214 258 268 258 247 245 263 277 257 216 214 223 219 288 256 241 261 267 228 236 245 238 225 222 223 218 188 178 179 190 195 196 201 204 204 205 208 210 209 207 208 207 206 208 207 204 205 205 205 206 206 206 206 204 200 199 199 195 193 193 193 191 189 189 185 181 181 181 181 180 182 176 167 166 159 151 141 127 108 85 64 46 38 31 26 22 21 21 18 17 16 15 15 16 16 14 15
219 244 268 269 261 261 277 290 264 232 229 224 239 275 242 224 264 297 257 248 247 242 243 246 243 223 172 177 191 196 201 205 209 210 211 214 214 214 213 210 208 207 208 208 206 205 207 206 205 207 207 207 206 202 199 198 197 195 196 196 196 194 193 195 190 185 185 183 184 186 186 181 174 172 164 158 150 134 114 91 68 45 39 34 28 22 21 20 18 16 14 14 14 14 14 13 12
228 235 267 279 276 279 289 290 272 252 242 185 217 259 246 226 289 285 262 251 247 242 241 243 239 237 215 194 196 197 204 209 211 212 215 218 216 215 215 212 208 209 211 208 206 207 207 205 205 207 208 207 205 202 199 198 197 196 199 198 198 196 194 198 196 190 188 185 186 187 190 185 176 175 169 162 155 141 124 102 69 47 39 32 27 22 20 17 15 13 11 11 9 10 12 8 4
247 269 288 279 281 288 275 274 271 261 252 192 208 256 261 208 173 267 265 246 222 231 243 244 232 238 229 210 206 199 204 210 210 211 213 216 213 215 215 211 210 212 211 207 207 207 205 204 205 207 207 207 204 202 200 198 197 199 200 199 198 197 195 198 198 195 189 187 189 188 191 187 178 177 171 166 162 149 136 113 64 45 36 29 25 21 18 14 12 11 9 8 6 6 6 4 360
294 331 314 288 295 300 273 267 268 255 255 203 191 255 281 161 182 244 256 239 163 219 241 246 232 238 232 219 217 204 210 215 211 206 207 209 210 212 212 211 211 210 209 208 208 205 203 203 204 205 205 205 204 203 201 199 199 200 199 198 198 198 198 198 198 199 194 188 189 189 191 189 182 178 174 174 169 160 153 141 80 45 36 26 24 19 16 12 11 10 7 6 3 1 360 1 357
298 14 317 289 310 297 272 267 255 217 220 178 148 280 283 230 222 240 250 248 225 241 251 250 235 237 234 227 223 214 223 218 207 207 212 213 212 211 212 214 211 208 210 209 206 204 203 203 202 202 203 203 203 203 202 200 200 200 200 198 198 198 198 198 199 202 200 191 189 191 192 190 185 180 179 180 175 171 170 171 198 50 38 23 22 18 14 12 10 8 5 4 360 356 356 357 354
289 345 254 282 320 291 268 263 238 211 197 150 129 271 267 241 236 242 252 253 242 249 254 249 242 241 235 232 230 228 229 217 207 214 218 217 214 213 215 216 211 209 209 205 204 204 204 202 201 200 201 202 202 202 202 201 201 200 200 199 198 199 199 199 200 202 204 195 190 191 193 194 188 182 183 184 180 179 179 185 202 83 38 25 24 18 15 12 7 6 3 0 357 355 355 355 349
275 302 236 261 295 275 270 250 163 188 201 154 140 220 258 257 251 246 252 246 233 239 249 247 241 242 239 233 232 237 235 222 219 221 221 218 215 215 216 215 211 209 207 203 204 204 202 201 199 198 199 201 201 201 202 201 201 201 200 199 199 200 199 199 200 202 205 200 193 192 195 198 192 184 185 185 184 182 184 189 194 149 44 33 28 22 19 13 7 6 2 355 353 352 352 351 345
224 242 277 265 210 263 283 270 181 191 228 161 149 202 257 262 264 258 249 235 226 230 245 249 243 241 241 239 235 239 244 234 227 228 226 220 216 216 216 214 210 208 206 204 204 201 200 199 198 197 197 199 200 200 201 201 201 200 201 200 199 200 199 199 201 203 205 202 197 194 196 199 194 189 187 186 186 184 186 189 189 168 82 48 36 30 21 13 7 4 1 354 349 348 346 344 344
265 201 250 260 227 265 294 289 221 183 167 183 191 209 255 262 267 270 260 227 221 225 243 248 245 244 239 241 239 238 247 244 236 233 227 220 218 217 215 213 210 208 207 204 201 198 197 197 196 196 196 197 198 198 199 200 200 200 201 200 199 200 198 199 201 204 205 202 199 197 198 198 194 192 190 188 187 186 187 188 186 175 145 73 46 35 22 14 5 0 1 356 348 343 340 340 343
275 206 235 256 245 260 277 293 288 157 148 201 220 228 250 257 265 281 286 245 218 220 240 246 245 247 241 241 240 239 245 245 242 235 224 219 218 217 214 213 211 208 206 203 201 199 196 195 194 195 195 194 196 196 197 198 199 199 200 200 200 199 199 200 201 203 205 203 200 198 198 199 195 191 192 191 188 187 188 188 187 182 179 131 61 34 25 15 5 0 358 355 347 339 338 341 343
233 197 222 255 249 254 256 269 261 152 170 208 219 235 250 259 264 270 273 263 241 228 236 248 248 249 248 246 241 239 243 246 246 236 225 221 218 216 212 210 209 204 202 201 200 198 194 192 192 192 192 191 193 194 194 195 195 196 198 197 198 199 198 199 201 204 205 205 202 198 198 199 196 193 193 192 190 190 190 189 191 191 195 178 92 40 32 16 8 2 351 346 340 337 341 344 346
223 219 232 245 249 258 258 264 229 172 198 220 219 234 244 254 258 257 261 261 257 250 243 250 252 253 255 252 248 244 243 249 249 234 225 223 218 213 207 205 204 201 199 197 195 194 192 189 188 189 190 190 190 190 190 190 190 191 193 193 195 196 196 197 201 204 205 206 205 200 199 200 198 195 193 193 192 193 193 194 196 198 203 193 169 87 37 14 9 358 346 338 332 334 341 346 350
255 256 260 255 255 264 262 268 253 185 200 230 224 236 244 250 255 252 254 256 257 257 249 245 246 249 254 255 256 254 248 253 259 235 221 220 216 207 202 199 196 193 194 193 191 191 190 188 187 188 188 188 188 187 188 187 187 188 189 191 193 193 195 196 198 202 205 206 206 204 202 201 201 197 195 195 194 195 195 196 199 202 205 201 202 202 13 12 9 352 341 336 331 333 336 342 348
249 252 260 262 252 262 262 264 264 201 199 250 240 244 250 251 257 256 249 241 247 251 248 249 246 244 251 255 258 257 254 259 270 247 217 211 206 197 193 190 188 187 189 190 190 189 188 188 188 188 187 188 189 189 189 190 192 192 191 193 193 192 194 196 197 200 203 205 206 206 204 203 204 201 197 197 197 198 197 197 201 204 207 205 208 213 300 2 1 343 333 334 335 333 329 333 343
240 245 256 262 251 268 269 256 263 220 188 256 253 249 253 252 258 258 245 232 238 244 244 249 249 247 253 254 255 259 260 264 263 251 210 196 191 185 184 185 187 188 187 187 188 187 186 187 188 189 189 189 191 192 192 193 195 196 195 195 194 192 193 197 198 199 201 203 205 206 206 207 208 204 201 200 201 201 200 201 203 206 209 208 210 217 238 332 336 332 330 332 334 328 323 325 333
236 239 249 257 248 263 268 250 264 238 208 257 267 262 257 255 265 261 245 236 240 246 246 251 251 249 253 252 255 260 260 261 250 232 206 188 181 179 181 183 185 184 183 183 184 184 185 187 189 190 190 191 192 193 194 195 195 195 197 197 195 193 193 196 197 198 200 202 203 205 208 210 210 208 205 204 203 203 203 204 206 208 209 210 214 222 235 277 309 319 323 324 323 315 312 313 315
243 234 234 249 245 243 253 268 316 300 273 287 291 288 271 234 247 256 247 235 241 247 249 255 254 249 254 257 256 257 258 254 234 215 204 186 179 182 183 182 181 181 182 183 184 186 187 189 191 192 192 193 194 194 194 194 193 191 191 190 190 191 191 191 192 195 197 201 203 205 208 209 210 209 207 206 205 205 205 205 208 210 210 212 216 221 230 254 285 299 307 304 296 290 291 293 295
257 232 216 237 245 245 256 289 335 319 294 292 243 287 279 209 220 247 249 228 238 241 240 247 251 250 254 258 256 253 254 247 222 208 197 188 185 183 182 180 180 183 185 186 187 188 189 190 192 193 193 194 195 194 194 194 192 190 188 184 184 185 185 190 194 195 196 200 204 206 207 208 209 208 208 208 206 206 206 207 209 210 210 211 213 217 220 233 262 274 285 280 264 261 272 279 284
267 229 201 226 242 254 264 281 307 268 265 271 119 266 283 258 216 233 231 221 233 234 231 239 244 247 247 250 254 253 250 235 217 209 191 185 184 178 182 185 185 188 188 187 188 189 191 191 192 193 194 194 195 194 194 194 193 192 193 192 190 189 189 196 199 199 199 201 204 205 206 207 208 208 208 208 206 206 207 208 210 210 211 211 211 214 214 223 245 258 266 263 254 247 250 264 276
266 230 185 207 228 250 253 236 228 235 273 283 148 132 281 282 244 203 205 211 228 236 237 241 240 240 244 247 252 254 246 220 202 203 191 188 188 183 188 191 191 190 187 186 188 190 192 192 193 194 194 195 195 195 195 196 196 195 196 196 197 197 198 200 200 201 202 202 203 204 205 206 207 208 209 208 206 207 208 209 211 211 210 210 211 212 214 224 238 251 258 254 248 244 245 257 270
252 134 160 165 186 221 166 173 232 301 333 284 205 138 256 280 254 183 198 206 221 237 234 236 237 235 242 246 248 254 251 221 197 198 193 191 192 192 192 192 192 189 186 188 190 191 192 193 193 194 195 196 196 197 197 198 199 198 197 198 200 202 203 203 200 200 201 201 202 203 204 205 207 208 210 209 207 208 209 211 211 212 211 210 211 213 216 224 238 250 253 251 246 245 248 257 268
231 112 99 68 70 62 77 147 204 39 304 261 194 148 222 278 265 164 181 203 214 235 233 235 237 234 240 246 250 256 255 227 205 204 196 193 194 194 192 189 188 189 189 190 191 191 192 193 193 194 196 197 198 198 199 199 200 200 199 200 201 201 201 201 199 198 199 199 200 202 203 204 205 206 207 208 209 208 209 210 212 213 212 212 213 215 219 226 240 250 250 248 246 248 252 256 264
147 90 52 26 8 27 54 13 72 50 276 239 177 177 192 271 279 144 167 203 199 212 227 242 249 246 247 249 251 255 253 228 207 208 198 191 191 190 188 184 185 189 191 191 191 192 193 193 194 196 198 199 199 199 200 200 201 202 202 202 202 200 198 197 196 196 197 197 197 199 201 203 205 206 206 206 207 208 207 209 213 214 212 214 216 217 221 227 237 245 245 246 247 251 260 263 265
82 91 71 18 326 11 28 358 58 220 265 217 180 183 184 235 264 144 230 260 204 200 207 227 241 243 246 248 249 252 246 216 194 198 188 174 176 183 185 184 185 188 190 192 192 192 194 195 196 197 199 200 200 200 201 202 202 204 205 204 204 202 199 197 197 197 197 196 197 197 199 201 203 204 205 205 206 205 206 208 210 212 213 215 216 216 219 225 234 243 245 246 250 255 262 264 264
105 113 105 62 298 341 354 318 74 221 258 226 190 181 201 241 253 232 273 284 236 210 205 214 223 232 241 244 249 253 237 193 187 189 182 177 182 184 185 186 186 189 192 193 193 194 196 197 197 199 201 201 201 201 202 203 204 205 206 206 205 204 202 201 200 200 199 198 198 196 196 198 199 202 204 206 206 205 206 208 208 210 213 214 215 215 218 225 236 246 248 248 253 258 261 260 258
160 150 146 164 214 249 265 263 266 259 262 251 191 165 240 279 276 214 233 243 233 215 211 220 218 222 231 231 245 258 229 186 191 190 184 186 190 188 188 189 190 193 194 193 195 197 197 199 200 201 203 203 202 203 204 205 206 207 207 206 206 205 205 204 203 202 201 200 199 199 199 199 200 202 205 207 207 206 206 208 209 210 210 211 212 213 217 229 241 248 250 252 257 259 257 254 252
183 160 146 174 182 180 207 235 252 270 286 280 190 161 238 296 280 213 221 244 250 227 219 226 228 233 238 241 257 263 232 198 194 192 195 197 194 190 190 191 193 195 194 195 197 199 199 201 203 203 204 203 203 204 206 207 209 209 207 207 207 207 208 207 206 205 204 202 201 201 201 202 203 205 207 208 207 206 206 206 206 207 206 207 209 212 219 231 241 246 248 251 253 252 250 249 251
220 130 119 214 201 186 222 257 240 234 319 290 221 199 240 254 260 247 238 255 264 253 244 244 253 253 250 259 263 253 213 207 201 196 204 205 198 194 193 193 194 193 193 197 201 201 202 204 204 205 206 205 204 205 207 209 210 210 209 208 208 208 209 209 208 207 206 205 203 203 204 205 206 207 208 209 207 206 206 204 204 204 205 205 207 213 221 230 238 242 245 248 249 247 248 250 253
189 131 179 212 167 166 217 280 286 142 267 273 242 240 278 311 290 272 260 267 270 282 280 253 243 247 244 252 257 237 201 215 212 207 209 204 200 202 200 196 192 191 194 201 204 204 205 205 204 206 208 207 208 208 209 210 210 210 211 211 209 208 209 210 210 208 206 205 205 205 206 206 207 207 207 207 205 204 205 205 204 203 203 206 209 215 224 230 236 241 244 247 246 245 248 252 254
130 174 210 180 67 120 165 235 315 271 249 268 269 264 281 305 287 307 12 339 288 260 249 239 241 247 251 256 256 239 215 222 228 229 228 220 212 207 204 202 199 198 200 204 206 205 205 206 206 207 208 209 210 210 210 210 210 212 213 212 211 210 210 211 212 210 207 204 204 205 205 206 206 206 205 204 202 202 203 204 204 203 204 208 212 218 224 229 234 239 242 244 245 246 249 253 254
138 202 201 114 141 228 162 170 211 240 244 257 272 276 275 251 256 296 311 277 261 252 245 247 254 250 247 256 260 252 222 218 225 228 230 228 222 212 204 206 206 206 208 209 207 205 206 208 209 210 211 212 212 211 211 212 213 213 214 214 214 212 211 211 211 210 208 205 204 204 203 205 204 203 202 200 199 199 199 201 203 205 207 209 212 216 222 227 232 236 238 241 245 247 249 254 256
53 360 340 66 180 188 184 181 171 220 241 250 266 277 273 247 222 205 239 241 242 259 271 267 261 257 256 262 271 267 233 216 218 219 223 223 223 222 214 212 211 210 211 209 204 205 208 210 210 213 215 214 212 212 213 214 214 215 215 216 215 214 212 211 210 210 208 207 206 204 203 203 201 200 200 198 198 198 198 200 203 205 207 208 211 215 220 226 229 233 237 240 243 244 249 254 258
178 216 256 253 227 183 234 237 179 211 234 238 245 256 266 262 181 167 209 195 187 215 253 273 268 273 273 267 264 258 235 224 221 217 223 223 223 228 224 223 221 217 212 206 204 206 208 211 213 214 215 214 213 214 214 215 215 215 215 216 216 214 212 211 210 210 209 208 207 205 203 201 199 198 198 197 197 198 200 201 203 205 207 209 211 214 218 223 227 230 234 239 240 243 250 255 259
176 198 214 216 224 231 255 249 226 221 238 236 237 248 260 261 152 150 181 157 179 200 195 233 241 240 254 256 242 233 227 228 227 219 221 220 220 225 223 221 218 214 211 206 204 206 207 211 214 214 214 214 215 215 215 215 215 214 216 217 215 213 211 210 209 209 209 208 206 205 202 199 197 197 197 197 198 199 200 202 203 205 207 209 211 213 216 219 222 226 230 234 238 243 250 255 259